Location: Chantarel
(45.1638°N, 1.7873°E)
Time: 06:22:18
(UTC+00:00)

Okean 1-7 - Pass Details

Date: 03 March 2021
Orbit: 590 x 619 km, 82.5° (Epoch: 10 April)

Event Time Altitude Azimuth Distance (km) Brightness Sun altitude
Rises 19:35:09 0° 348° (NNW) 2,895 6.8 -20.5°
Reaches altitude 10° 19:37:25 10° 345° (NNW) 1,981 6.0 -20.9°
Maximum altitude 19:41:44 64° 265° (W) 680 3.4 -21.6°
Enters shadow 19:45:51 11° 184° (S) 1,885 5.4 -22.3°
